Regional Weather Roundup
Issued by NWS

Home | Current Version | Previous Version | Text Only | Print | Product List | Glossary On
Versions: 1 2 3 4 5 6 7 8 9 10 11 12 13 14 15 16 17 18 19 20 21 22 23 24 25 26 27 28 29 30 31 32 33 34 35 36 37 38 39 40 41 42 43 44 45 46 47 48 49 50
000
ASUS43 KIND 311109
RWRIN

WEATHER ROUNDUP FOR INDIANA
NATIONAL WEATHER SERVICE INDIANAPOLIS IN
700 AM EDT SUN AUG 31 2014

NOTE: "FAIR" INDICATES FEW OR NO CLOUDS BELOW 12,000 FEET WITH NO
SIGNIFICANT WEATHER AND/OR OBSTRUCTIONS TO VISIBILITY.

* - STATION DOES NOT REPORT WEATHER SUCH AS PRECIPITATION OR FOG.

+ - STATION NOT QUALITY CONTROLLED BY THE NATIONAL WEATHER SERVICE.
    USE DATA WITH CAUTION...ESPECIALLY DEWPOINT AND RELATIVE
    HUMIDITY OBSERVATIONS.

INZ001>003-010>013-019-020-311200-
NORTHWEST INDIANA

CITY           SKY/WX    TMP DP  RH WIND       PRES   REMARKS
GARY /AIRPORT/ CLOUDY    68  66  94 CALM      29.95R
KNOX *+        CLOUDY    66  64  93 CALM      29.96R
LA PORTE +     PTCLDY    65  65 100 CALM      29.97R
MICHIGAN CITY+ CLOUDY    68  66  94 SW5       29.96R
MONTICELLO +   CLOUDY    69  69  98 SW5       29.96R
RENSSELAER +   CLOUDY    68  68 100 S5        29.96R FOG
VALPARAISO     MOCLDY    67  65  93 S5        29.97R

$$

LMZ046-743>745-311200-
SOUTHERN LAKE MICHIGAN

STATION/POSITION TIME  TEMP WIND        PRES
                       AIR  DIR/SP/G
                 (UTC) (F)  (DEG/KT/KT) (MB)
MICHIGAN CITY    1100   67  180/  5/  8   N/A

$$

INZ004-005-014>016-021>024-311200-
NORTH CENTRAL INDIANA

CITY           SKY/WX    TMP DP  RH WIND       PRES   REMARKS
GOSHEN         CLOUDY    70  66  87 W6        29.97R
LOGANSPORT +   CLOUDY    68  64  88 S5        29.98R
PERU/GRISSOM   CLOUDY    67  67 100 SW5       29.98R
ROCHESTER +    MOCLDY    70  68  94 SW6       29.97R
SOUTH BEND     MOCLDY    68  65  90 SW6       29.97R
WARSAW +       CLOUDY    68  68 100 SW3       29.97R

$$

INZ006>009-017-018-025>027-311200-
NORTHEAST INDIANA

CITY           SKY/WX    TMP DP  RH WIND       PRES   REMARKS
ANGOLA *+      CLEAR     72  63  73 W3        29.96R
AUBURN +       CLOUDY    68  64  88 S3        29.98R
FORT WAYNE     CLOUDY    69  67  93 W7        29.98R
HUNTINGTON +   CLOUDY    68  67  97 SW3       29.98R

$$

INZ028-029-035-036-043>045-051>053-311200-
WEST CENTRAL INDIANA

CITY           SKY/WX    TMP DP  RH WIND       PRES   REMARKS
GREENCASTLE +  CLOUDY    70  68  94 CALM      30.01R FOG
LAFAYETTE      CLOUDY    70  69  97 S3        29.97R
TERRE HAUTE    CLOUDY    72  69  90 SW6       29.99R

$$

INZ030>032-037>040-046>048-054>057-064-065-311200-
CENTRAL INDIANA

CITY           SKY/WX    TMP DP  RH WIND       PRES   REMARKS
CP ATTERBURY + CLOUDY    70  68  94 SW5       30.02R FOG
COLUMBUS       LGT RAIN  70  70 100 CALM      30.02  FOG
FRANKFORT +    CLOUDY   N/A N/A N/A S3        30.00R FOG
GREENWOOD *+   CLOUDY    72  72 100 S3        30.02
INDIANAPOLIS   CLOUDY    71  68  90 S7        29.99R
-EAGLE CREEK   CLOUDY    71  67  87 SW6       29.99S
KOKOMO *+      CLOUDY    70  66  88 SW9       29.98R
MARION +       CLOUDY    68  67  96 S6        29.99R
MT COMFORT *+  CLOUDY    70 N/A N/A S3        30.01S
SHELBYVILLE    CLOUDY    71  69  93 S6        30.01R
ZIONSVILLE +   CLOUDY    71  67  87 SW3       30.00R

$$

INZ033-034-041-042-049-050-058-059-311200-
EAST CENTRAL INDIANA

CITY           SKY/WX    TMP DP  RH WIND       PRES   REMARKS
MUNCIE         CLOUDY    71  67  87 S8        29.99S

$$

INZ060-061-067>069-081>083-085>088-311200-
SOUTHWEST INDIANA

CITY           SKY/WX    TMP DP  RH WIND       PRES   REMARKS
EVANSVILLE     CLOUDY    73  71  93 CALM      30.02R
WASHINGTON +   CLOUDY    72  72 100 S6        30.00R

$$

INZ062-063-066-070>080-084-089>092-311200-
SOUTH CENTRAL AND SOUTHEAST INDIANA

CITY           SKY/WX    TMP DP  RH WIND       PRES   REMARKS
BEDFORD +      CLOUDY    72  68  88 SW7       30.02
BLOOMINGTON    CLOUDY    72  70  93 SW6       30.02R

$$




USA.gov is the U.S. government's official web portal to all federal, state and local government web resources and services.